[[{"header":{"parameterUnit":"m.s-1","parameterCategory":1,"la1":30.2991,"la2":30.254,"lo1":-89.0895,"lo2":-89.0444,"dy":0.0017,"dx":0.0017,"nx":28,"ny":28,"refTime":"2024-07-26T03:00:00:Z","depth":0,"parameterNumber":2,"parameterNumberName":"U-component_of_WINDS"},"data":[0,0,0,0,0,0,0,0,0,0,0,0,0,0,0,0,0,0,0,0,0,0,0,0,0,0,0,0,0,0,0,0,0,0,0,0,0,0,0,0,0,0,0,0,0,0,0,0,0,0,0,0,0,0,0,0,0,0,-2.198,-2.198,0,-2.2012,-2.2013,-2.2013,-2.201,-2.2009,-2.2009,-2.2008,-2.2038,-2.204,-2.2041,0,0,0,0,0,0,0,0,0,0,0,0,0,-2.1913,-2.1914,-2.198,-2.198,-2.1981,-2.2012,-2.2013,-2.2013,-2.201,-2.2009,-2.2009,-2.2008,-2.2038,-2.2039,-2.2041,0,0,0,0,0,0,0,0,0,0,0,0,0,-2.1943,-2.1914,-2.198,-2.1983,-2.1983,-2.2012,-2.2013,-2.2013,-2.201,-2.2009,-2.2009,-2.2008,-2.2038,-2.2039,-2.2041,-2.2068,0,0,-2.2047,-2.2048,0,0,0,0,0,0,0,0,-2.1941,-2.1945,-2.1982,-2.1983,-2.1983,-2.2006,-2.2,-2.2031,-2.201,-2.2,-2.2008,-2.2007,-2.2028,-2.2031,-2.2038,-2.2069,-2.207,-2.2047,-2.2048,-2.2049,-2.205,0,0,0,0,0,0,0,-2.1939,-2.1944,-2.1992,-2.1983,-2.1983,-2.1982,-2.1985,-2.2006,-2.2018,-2.2001,-2.2001,-2.2005,-2.2028,-2.2037,-2.2039,-2.2071,-2.2047,-2.2049,-2.205,-2.2051,-2.2125,-2.2126,0,0,0,0,0,0,-2.1937,-2.1942,-2.1991,-2.1993,-2.196,-2.1984,-2.1988,-2.2,-2.2017,-2.2019,-2.2005,-2.2004,-2.2034,-2.2037,-2.204,-2.2072,-2.2049,-2.2051,-2.2052,-2.2124,-2.2125,-2.2126,0,0,0,0,0,0,-2.1935,-2.1941,-2.199,-2.1968,-2.1974,-2.1986,-2.1999,-2.2001,-2.2009,-2.2021,-2.2023,-2.2012,-2.2033,-2.2037,-2.2061,-2.2073,-2.2052,-2.2053,-2.2123,-2.2125,-2.2126,-2.2136,0,0,0,0,0,0,-2.1933,-2.1941,-2.1951,-2.1968,-2.1975,-2.2011,-2.2,-2.2002,-2.2012,-2.2012,-2.2027,-2.2029,-2.2033,-2.2058,-2.2063,-2.2075,-2.2055,-2.2122,-2.2124,-2.2125,-2.2135,-2.2138,-2.214,0,0,0,0,0,-2.1931,-2.1952,-2.1952,-2.1958,-2.1989,-2.2012,-2.2016,-2.2021,-2.2013,-2.2024,-2.2032,-2.2029,-2.2071,-2.2061,-2.2066,-2.2079,-2.2121,-2.2123,-2.2125,-2.2134,-2.2137,-2.214,0,0,0,0,0,0,-2.1935,-2.1954,-2.1954,-2.1982,-2.1995,-2.2011,-2.2024,-2.2024,-2.2039,-2.2038,-2.2042,-2.2046,-2.207,-2.2077,-2.2065,-2.2106,-2.2095,-2.2098,-2.21,-2.2103,-2.2106,-2.2103,-2.2056,0,0,0,0,0,-2.1939,-2.1957,-2.1973,-2.1995,-2.2003,-2.2013,-2.2023,-2.2026,-2.2039,-2.2045,-2.2054,-2.2067,-2.2084,-2.2094,-2.211,-2.2136,-2.2139,-2.2148,-2.2151,-2.2153,-2.2155,-2.2169,-2.2173,-2.2132,-2.2132,-2.2132,0,0,-2.1947,-2.196,-2.1971,-2.1997,-2.2008,-2.2025,-2.2017,-2.2036,-2.2049,-2.2047,-2.207,-2.2078,-2.2093,-2.2118,-2.213,-2.2125,-2.2167,-2.2155,-2.2157,-2.2158,-2.2172,-2.2176,-2.2179,-2.2134,-2.2133,-2.2133,0,0,-2.1971,-2.1984,-2.2004,-2.2016,-2.2033,-2.204,-2.2045,-2.2061,-2.2067,-2.209,-2.2089,-2.2105,-2.2133,-2.2143,-2.2152,-2.2182,-2.218,-2.2187,-2.22,-2.2214,-2.2218,-2.2221,-2.2231,-2.2234,-2.219,-2.219,-2.219,0,-2.1979,-2.2007,-2.2014,-2.2034,-2.2045,-2.2046,-2.2066,-2.2076,-2.2097,-2.2104,-2.2099,-2.2135,-2.2145,-2.2173,-2.218,-2.2188,-2.2193,-2.2185,-2.2217,-2.222,-2.2223,-2.2232,-2.2236,-2.219,-2.219,-2.219,-2.219,0,-2.2015,-2.2035,-2.2049,-2.2071,-2.2084,-2.2103,-2.2113,-2.2125,-2.2127,-2.2134,-2.2158,-2.217,-2.2189,-2.2196,-2.2197,-2.2224,-2.222,-2.2216,-2.2205,-2.2227,-2.2236,-2.224,-2.2191,-2.2191,-2.2191,-2.2191,0,0,-2.2041,-2.2068,-2.2073,-2.2083,-2.2103,-2.2117,-2.2137,-2.2156,-2.2166,-2.2181,-2.2197,-2.2222,-2.2219,-2.2229,-2.2232,-2.2245,-2.2267,-2.2239,-2.2239,-2.2243,-2.2296,-2.2299,-2.2303,-2.2266,-2.2267,-2.2268,-2.2295,0,-2.2066,-2.2103,-2.211,-2.2141,-2.2159,-2.2161,-2.2178,-2.2192,-2.2199,-2.2215,-2.2223,-2.224,-2.2234,-2.2241,-2.2253,-2.2262,-2.2278,-2.226,-2.228,-2.2281,-2.2275,-2.2308,-2.231,-2.2335,-2.2298,-2.2299,-2.23,0,-2.21,-2.2118,-2.2151,-2.2169,-2.2177,-2.2192,-2.2211,-2.2226,-2.2242,-2.2246,-2.2259,-2.2261,-2.2281,-2.2271,-2.2298,-2.2286,-2.2295,-2.23,-2.2302,-2.2302,-2.229,-2.2308,-2.2343,-2.2346,-2.2305,-2.2305,-2.2304,0,-2.2115,-2.2146,-2.217,-2.2179,-2.2201,-2.2212,-2.2221,-2.2237,-2.2248,-2.2264,-2.2271,-2.2289,-2.2298,-2.2312,-2.2319,-2.2311,-2.2345,-2.2336,-2.2349,-2.2349,-2.2355,-2.2354,-2.239,-2.2363,-2.2363,-2.2363,-2.2362,0,-2.2142,-2.2161,-2.2177,-2.2191,-2.2214,-2.2223,-2.2244,-2.2253,-2.2267,-2.2283,-2.2286,-2.23,-2.2309,-2.2325,-2.233,-2.2352,-2.2356,-2.236,-2.2361,-2.2359,-2.2358,-2.2364,-2.2362,-2.2364,-2.2363,-2.2363,-2.2363,0,-2.216,-2.2172,-2.2198,-2.2218,-2.2223,-2.2239,-2.2255,-2.2269,-2.2277,-2.2297,-2.2302,-2.2315,-2.2334,-2.2343,-2.2365,-2.2369,-2.2393,-2.2394,-2.2388,-2.2388,-2.2401,-2.2399,-2.244,-2.2446,-2.2416,-2.2416,-2.2416,0,-2.2176,-2.2192,-2.2214,-2.2225,-2.2236,-2.2254,-2.2266,-2.2275,-2.2287,-2.2307,-2.2319,-2.2338,-2.2354,-2.2384,-2.2394,-2.2412,-2.2412,-2.2425,-2.2414,-2.2412,-2.2411,-2.2409,-2.2411,-2.2427,-2.2427,-2.2427,-2.2427,0,-2.2203,-2.2208,-2.2226,-2.2246,-2.2261,-2.2277,-2.2292,-2.2301,-2.2313,-2.2327,-2.2347,-2.2359,-2.2383,-2.2402,-2.2421,-2.243,-2.243,-2.2431,-2.2435,-2.2432,-2.2428,-2.243,-2.2393,-2.243,-2.2429,-2.2429,-2.2429,-2.2429,-2.222,-2.2234,-2.2252,-2.2272,-2.2285,-2.23,-2.2314,-2.2325,-2.2342,-2.2363,-2.2368,-2.2389,-2.2405,-2.243,-2.244,-2.2456,-2.2453,-2.2458,-2.2459,-2.246,-2.2461,-2.2427,-2.2459,-2.2459,-2.2459,-2.2459,-2.2459,0,-2.2245,-2.2258,-2.2276,-2.2299,-2.2314,-2.2316,-2.2333,-2.2346,-2.2365,-2.238,-2.2396,-2.2419,-2.2438,-2.2451,-2.247,-2.248,-2.2481,-2.2485,-2.2483,-2.2485,-2.2463,-2.2457,-2.2484,-2.2484,-2.2484,-2.2484,-2.2484,-2.2484,-2.2261,-2.2285,-2.2292,-2.2323,-2.2334,-2.2356,-2.2366,-2.238,-2.2392,-2.2418,-2.2434,-2.2443,-2.2457,-2.2477,-2.2494,-2.2498,-2.2504,-2.2508,-2.2511,-2.2489,-2.2487,-2.2484,-2.2479,-2.2509,-2.2509,-2.2531,-2.2531,-2.2532]},{"header":{"parameterUnit":"m.s-1","parameterCategory":1,"la1":30.2991,"la2":30.254,"lo1":-89.0895,"lo2":-89.0444,"dy":0.0017,"dx":0.0017,"nx":28,"ny":28,"refTime":"2024-07-26T03:00:00:Z","depth":0,"parameterNumber":3,"parameterNumberName":"V-component_of_WINDS"},"data":[0,0,0,0,0,0,0,0,0,0,0,0,0,0,0,0,0,0,0,0,0,0,0,0,0,0,0,0,0,0,0,0,0,0,0,0,0,0,0,0,0,0,0,0,0,0,0,0,0,0,0,0,0,0,0,0,0,0,2.1356,2.1356,0,2.1327,2.1327,2.1326,2.129,2.129,2.1289,2.1289,2.1259,2.1258,2.1258,0,0,0,0,0,0,0,0,0,0,0,0,0,2.1382,2.1382,2.1356,2.1356,2.1356,2.1327,2.1326,2.1326,2.129,2.129,2.1289,2.1288,2.1259,2.1258,2.1258,0,0,0,0,0,0,0,0,0,0,0,0,0,2.1364,2.1382,2.1356,2.1334,2.1332,2.1327,2.1326,2.1326,2.129,2.129,2.1289,2.1288,2.1259,2.1258,2.1258,2.1272,0,0,2.1257,2.1256,0,0,0,0,0,0,0,0,2.1365,2.1363,2.1338,2.1336,2.1333,2.1311,2.1325,2.1308,2.1291,2.1306,2.1289,2.1288,2.1277,2.1275,2.1271,2.1271,2.127,2.1257,2.1256,2.1256,2.1256,0,0,0,0,0,0,0,2.1366,2.1364,2.1345,2.1338,2.1335,2.1326,2.1322,2.1321,2.1297,2.1305,2.1302,2.1299,2.1275,2.1272,2.127,2.1269,2.1257,2.1256,2.1256,2.1256,2.128,2.1281,0,0,0,0,0,0,2.1371,2.1365,2.1346,2.1344,2.1347,2.1326,2.1322,2.1319,2.1297,2.1292,2.13,2.1298,2.1273,2.1271,2.1269,2.1285,2.1256,2.1256,2.1256,2.128,2.1281,2.1282,0,0,0,0,0,0,2.1371,2.1369,2.1347,2.1354,2.135,2.1327,2.1324,2.1319,2.1315,2.1293,2.1288,2.1301,2.1272,2.127,2.1272,2.1283,2.1256,2.1255,2.1278,2.128,2.1281,2.1317,0,0,0,0,0,0,2.1372,2.137,2.1375,2.1354,2.135,2.135,2.1324,2.1319,2.1315,2.1311,2.1292,2.1288,2.1271,2.1273,2.1272,2.1282,2.1255,2.1277,2.1279,2.1281,2.1315,2.1319,2.1323,0,0,0,0,0,2.1373,2.1386,2.1375,2.1373,2.1356,2.1351,2.1348,2.1328,2.1316,2.1321,2.1307,2.1289,2.1282,2.1273,2.1272,2.1283,2.1277,2.1279,2.1281,2.1313,2.1318,2.1323,0,0,0,0,0,0,2.1408,2.1383,2.1371,2.1377,2.1366,2.1345,2.135,2.1335,2.1328,2.1325,2.1301,2.1297,2.1302,2.1293,2.1283,2.1296,2.1277,2.1279,2.1302,2.1307,2.1312,2.1314,2.1255,0,0,0,0,0,2.1416,2.1414,2.1392,2.14,2.1395,2.1374,2.1371,2.1357,2.1345,2.134,2.1326,2.1315,2.1311,2.1308,2.1303,2.1313,2.1309,2.132,2.1324,2.1328,2.133,2.1335,2.134,2.1288,2.1288,2.1288,0,0,2.1433,2.1419,2.142,2.1406,2.1397,2.1396,2.137,2.137,2.1369,2.134,2.1342,2.1331,2.1318,2.1324,2.1326,2.1316,2.1343,2.1331,2.1334,2.1333,2.1338,2.1343,2.1347,2.129,2.1289,2.1289,0,0,2.1464,2.1453,2.1459,2.145,2.1435,2.1421,2.1423,2.1404,2.1396,2.1397,2.1376,2.1374,2.1367,2.1359,2.1353,2.1383,2.1366,2.1381,2.1404,2.141,2.1414,2.1418,2.1429,2.1433,2.1383,2.1383,2.1384,0,2.1487,2.1485,2.1463,2.1465,2.146,2.1434,2.144,2.1432,2.1417,2.1414,2.1403,2.1394,2.1383,2.1388,2.1395,2.1392,2.1393,2.1383,2.1415,2.1419,2.1422,2.1432,2.1436,2.1385,2.1385,2.1385,2.1385,0,2.1514,2.1513,2.1519,2.1505,2.1501,2.1504,2.1484,2.1483,2.1469,2.1456,2.1459,2.1445,2.1437,2.1437,2.1423,2.144,2.1434,2.142,2.14,2.1429,2.1438,2.1442,2.1388,2.1388,2.1387,2.1386,0,0,2.1565,2.154,2.1543,2.1537,2.152,2.1518,2.1521,2.1513,2.1513,2.1504,2.1506,2.1501,2.1488,2.1482,2.1467,2.1472,2.1497,2.1457,2.1456,2.1466,2.1516,2.1527,2.1532,2.1487,2.1487,2.1488,2.1517,0,2.1593,2.1596,2.1577,2.1586,2.1585,2.1561,2.1563,2.1553,2.1542,2.154,2.1527,2.1524,2.1506,2.1503,2.1507,2.1493,2.1507,2.1491,2.1489,2.1489,2.1493,2.1537,2.1548,2.1577,2.1521,2.1521,2.1522,0,2.1625,2.1618,2.1627,2.161,2.1609,2.1612,2.1604,2.1602,2.159,2.1582,2.1576,2.1559,2.1562,2.1543,2.1546,2.1536,2.1534,2.1528,2.1528,2.1527,2.1507,2.1538,2.1585,2.159,2.1527,2.1527,2.1526,0,2.1662,2.1655,2.1659,2.1655,2.1635,2.1638,2.163,2.1618,2.1615,2.1608,2.1606,2.16,2.1596,2.1592,2.1575,2.1563,2.158,2.156,2.1573,2.1574,2.1578,2.1578,2.1627,2.1576,2.1576,2.1576,2.1576,0,2.1695,2.1702,2.1676,2.1678,2.1685,2.1664,2.1671,2.1661,2.1651,2.1651,2.163,2.1631,2.1608,2.1607,2.1593,2.1599,2.1597,2.159,2.1587,2.1592,2.1593,2.1591,2.1589,2.1577,2.1577,2.1577,2.1577,0,2.1738,2.1721,2.1724,2.1706,2.1701,2.1707,2.1692,2.1694,2.1681,2.1683,2.1682,2.1662,2.166,2.1642,2.1636,2.1627,2.1637,2.1629,2.1641,2.1639,2.1653,2.1652,2.1702,2.1708,2.1654,2.1654,2.1655,0,2.176,2.1764,2.1747,2.1746,2.1739,2.1738,2.1735,2.1715,2.1713,2.1701,2.1705,2.1701,2.1696,2.1694,2.1679,2.1675,2.1667,2.1685,2.1666,2.1672,2.1668,2.1668,2.1669,2.1689,2.1689,2.169,2.169,0,2.1802,2.1793,2.179,2.1784,2.1781,2.1775,2.1768,2.1769,2.1747,2.1745,2.1743,2.174,2.1733,2.173,2.1723,2.1715,2.17,2.1697,2.17,2.1706,2.1712,2.171,2.1652,2.1695,2.1695,2.1695,2.1694,2.1694,2.1835,2.1838,2.1827,2.1824,2.1817,2.1811,2.1812,2.18,2.1798,2.1791,2.178,2.1779,2.1769,2.1758,2.1752,2.1751,2.1742,2.1746,2.1747,2.1749,2.1752,2.1712,2.175,2.175,2.175,2.1749,2.1749,0,2.1876,2.1868,2.1865,2.1857,2.1855,2.184,2.1832,2.1832,2.1831,2.1823,2.182,2.1817,2.1814,2.18,2.1796,2.1798,2.1791,2.1798,2.1797,2.1796,2.176,2.1758,2.1804,2.1804,2.1804,2.1804,2.1804,2.1804,2.1897,2.1902,2.1893,2.1894,2.1886,2.1885,2.1882,2.1877,2.187,2.1869,2.1866,2.1857,2.1847,2.1841,2.1838,2.1834,2.1834,2.1843,2.1837,2.1804,2.1798,2.1793,2.1792,2.1843,2.1843,2.1873,2.1873,2.1873]}]]